| time (UTC) | temp C | wind direction | speed KPH | gust KPH | rain 1hr cm | rain 24hr cm | rain mn cm | humidity % | barometer mb |
| 20260504130447 | 13 | 18 | 4.8 | 6.4 | 0.00 | 0.00 | 0.00 | 44 | 1010.8 |
| 20260504110334 | 8 | 102 | 3.2 | 3.2 | 0.00 | 0.00 | 0.00 | 58 | 1011.1 |
| 20260504100251 | 6 | 102 | 0.0 | 0.0 | 0.00 | 0.00 | 0.00 | 64 | 1010.8 |
| 20260504081645 | 5 | 102 | 0.0 | 0.0 | 0.00 | 0.00 | 0.00 | 74 | 1010.8 |
| 20260504081141 | 5 | 102 | 0.0 | 0.0 | 0.00 | 0.00 | 0.00 | 74 | 1010.8 |
| 20260504080638 | 5 | 102 | 0.0 | 0.0 | 0.00 | 0.00 | 0.00 | 75 | 1010.8 |
| 20260504080134 | 5 | 102 | 0.0 | 0.0 | 0.00 | 0.00 | 0.00 | 75 | 1010.8 |
| 20260504050450 | 6 | 102 | 0.0 | 0.0 | 0.00 | 0.00 | 0.00 | 67 | 1011.5 |
| 20260504045947 | 6 | 102 | 0.0 | 0.0 | 0.00 | 0.00 | 0.00 | 63 | 1011.8 |
| 20260504045443 | 6 | 102 | 0.0 | 0.0 | 0.00 | 0.00 | 0.00 | 60 | 1011.8 |
| 20260504044939 | 6 | 102 | 0.0 | 0.0 | 0.00 | 0.00 | 0.00 | 60 | 1011.8 |
| 20260504044437 | 6 | 102 | 0.0 | 0.0 | 0.00 | 0.00 | 0.00 | 59 | 1011.8 |
| 20260504043934 | 6 | 102 | 0.0 | 0.0 | 0.00 | 0.00 | 0.00 | 59 | 1011.8 |
| 20260504043431 | 6 | 102 | 0.0 | 0.0 | 0.00 | 0.00 | 0.00 | 60 | 1011.8 |
| 20260504042929 | 6 | 102 | 0.0 | 0.0 | 0.00 | 0.00 | 0.00 | 61 | 1011.8 |
| 20260504042425 | 6 | 102 | 0.0 | 0.0 | 0.00 | 0.00 | 0.00 | 60 | 1011.8 |
| 20260504041922 | 6 | 102 | 0.0 | 0.0 | 0.00 | 0.00 | 0.00 | 61 | 1011.8 |
| 20260504041418 | 6 | 102 | 0.0 | 0.0 | 0.00 | 0.00 | 0.00 | 65 | 1011.5 |
| 20260504040914 | 6 | 102 | 0.0 | 0.0 | 0.00 | 0.00 | 0.00 | 64 | 1011.5 |
| 20260504040412 | 6 | 102 | 0.0 | 0.0 | 0.00 | 0.00 | 0.00 | 66 | 1011.5 |
| 20260504035908 | 5 | 102 | 0.0 | 0.0 | 0.00 | 0.00 | 0.00 | 63 | 1011.5 |
| 20260504035405 | 6 | 102 | 0.0 | 0.0 | 0.00 | 0.00 | 0.00 | 63 | 1011.5 |
| 20260504034902 | 6 | 102 | 3.2 | 3.2 | 0.00 | 0.00 | 0.00 | 61 | 1011.5 |
| 20260504034359 | 6 | 102 | 0.0 | 0.0 | 0.00 | 0.00 | 0.00 | 63 | 1011.5 |
| 20260504033856 | 6 | 102 | 0.0 | 0.0 | 0.00 | 0.00 | 0.00 | 59 | 1011.5 |
| 20260504033354 | 6 | 102 | 0.0 | 0.0 | 0.00 | 0.00 | 0.00 | 59 | 1011.1 |
| 20260504032850 | 6 | 102 | 0.0 | 0.0 | 0.00 | 0.00 | 0.00 | 59 | 1011.5 |
| 20260504032348 | 6 | 102 | 0.0 | 0.0 | 0.00 | 0.00 | 0.00 | 61 | 1011.1 |
| 20260504031844 | 6 | 102 | 0.0 | 0.0 | 0.00 | 0.00 | 0.00 | 58 | 1011.1 |
| 20260504031342 | 6 | 102 | 1.6 | 1.6 | 0.00 | 0.00 | 0.00 | 55 | 1011.1 |
| 20260504030838 | 6 | 102 | 0.0 | 0.0 | 0.00 | 0.00 | 0.00 | 56 | 1010.8 |
| 20260504030335 | 6 | 102 | 0.0 | 0.0 | 0.00 | 0.00 | 0.00 | 56 | 1011.1 |
| 20260504025831 | 6 | 102 | 0.0 | 0.0 | 0.00 | 0.00 | 0.00 | 52 | 1011.1 |
| 20260504025328 | 6 | 102 | 0.0 | 0.0 | 0.00 | 0.00 | 0.00 | 55 | 1011.1 |
| 20260504024825 | 7 | 102 | 0.0 | 0.0 | 0.00 | 0.00 | 0.00 | 53 | 1011.1 |
| 20260504024322 | 7 | 102 | 0.0 | 0.0 | 0.00 | 0.00 | 0.00 | 53 | 1011.1 |
| 20260504023818 | 7 | 102 | 0.0 | 0.0 | 0.00 | 0.00 | 0.00 | 54 | 1011.1 |
| 20260504023315 | 7 | 102 | 0.0 | 0.0 | 0.00 | 0.00 | 0.00 | 46 | 1011.1 |
| 20260504022811 | 7 | 102 | 0.0 | 0.0 | 0.00 | 0.00 | 0.00 | 51 | 1011.5 |
| 20260504022308 | 8 | 102 | 0.0 | 0.0 | 0.00 | 0.00 | 0.00 | 50 | 1011.5 |
| 20260504021804 | 8 | 102 | 3.2 | 3.2 | 0.00 | 0.00 | 0.00 | 46 | 1011.5 |
| 20260504021302 | 8 | 102 | 0.0 | 0.0 | 0.00 | 0.00 | 0.00 | 47 | 1011.5 |
| 20260504020759 | 8 | 102 | 0.0 | 0.0 | 0.00 | 0.00 | 0.00 | 47 | 1011.5 |
| 20260504020255 | 8 | 102 | 1.6 | 1.6 | 0.00 | 0.00 | 0.00 | 46 | 1011.5 |
| 20260504015751 | 7 | 102 | 4.8 | 4.8 | 0.00 | 0.00 | 0.00 | 46 | 1011.1 |
| 20260504015248 | 7 | 102 | 3.2 | 3.2 | 0.00 | 0.00 | 0.00 | 47 | 1011.1 |
| 20260504014743 | 7 | 102 | 3.2 | 3.2 | 0.00 | 0.00 | 0.00 | 46 | 1011.5 |
| 20260504014240 | 7 | 102 | 4.8 | 6.4 | 0.00 | 0.00 | 0.00 | 47 | 1011.1 |
| 20260504013738 | 7 | 102 | 3.2 | 3.2 | 0.00 | 0.00 | 0.00 | 45 | 1011.1 |
| 20260504013235 | 7 | 102 | 3.2 | 3.2 | 0.00 | 0.00 | 0.00 | 46 | 1011.1 |
| 20260504012732 | 7 | 102 | 4.8 | 4.8 | 0.00 | 0.00 | 0.00 | 46 | 1010.8 |
| 20260504012230 | 7 | 102 | 4.8 | 4.8 | 0.00 | 0.00 | 0.00 | 45 | 1010.8 |
| 20260504011726 | 7 | 102 | 3.2 | 3.2 | 0.00 | 0.00 | 0.00 | 46 | 1010.8 |
| 20260504011223 | 7 | 102 | 3.2 | 3.2 | 0.00 | 0.00 | 0.00 | 46 | 1010.8 |
| 20260504010719 | 7 | 102 | 0.0 | 0.0 | 0.00 | 0.00 | 0.00 | 46 | 1010.8 |
| 20260504010215 | 7 | 102 | 3.2 | 3.2 | 0.00 | 0.00 | 0.00 | 46 | 1010.8 |
| 20260504005712 | 7 | 102 | 3.2 | 3.2 | 0.00 | 0.00 | 0.00 | 44 | 1010.4 |
| 20260504005209 | 7 | 102 | 0.0 | 0.0 | 0.00 | 0.00 | 0.00 | 44 | 1010.4 |
| 20260504004707 | 7 | 102 | 3.2 | 3.2 | 0.00 | 0.00 | 0.00 | 44 | 1010.4 |
| 20260504004203 | 7 | 102 | 3.2 | 3.2 | 0.00 | 0.00 | 0.00 | 43 | 1010.4 |
| 20260504003700 | 7 | 102 | 1.6 | 1.6 | 0.00 | 0.00 | 0.00 | 41 | 1010.4 |
| 20260504003157 | 7 | 102 | 0.0 | 0.0 | 0.00 | 0.00 | 0.00 | 45 | 1010.1 |
| 20260504002653 | 7 | 102 | 1.6 | 1.6 | 0.00 | 0.00 | 0.00 | 47 | 1010.1 |
| 20260504002151 | 8 | 102 | 0.0 | 0.0 | 0.00 | 0.00 | 0.00 | 45 | 1010.1 |
| 20260504001649 | 8 | 102 | 4.8 | 4.8 | 0.00 | 0.00 | 0.00 | 37 | 1010.1 |
| 20260504001144 | 8 | 102 | 0.0 | 0.0 | 0.00 | 0.00 | 0.00 | 41 | 1010.1 |
| 20260504000642 | 8 | 102 | 0.0 | 0.0 | 0.00 | 0.00 | 0.00 | 40 | 1009.8 |
| 20260504000139 | 8 | 102 | 4.8 | 4.8 | 0.00 | 0.00 | 0.00 | 39 | 1009.8 |
| 20260503235637 | 8 | 102 | 4.8 | 4.8 | 0.00 | 0.00 | 0.00 | 37 | 1009.8 |
| 20260503235133 | 8 | 102 | 3.2 | 3.2 | 0.00 | 0.00 | 0.00 | 39 | 1009.8 |
| 20260503234632 | 8 | 102 | 6.4 | 6.4 | 0.00 | 0.00 | 0.00 | 38 | 1009.8 |
| 20260503234130 | 9 | 102 | 0.0 | 0.0 | 0.00 | 0.00 | 0.00 | 38 | 1009.3 |
| 20260503233626 | 9 | 102 | 3.2 | 3.2 | 0.00 | 0.00 | 0.00 | 37 | 1009.0 |
| 20260503233122 | 9 | 108 | 3.2 | 3.2 | 0.00 | 0.00 | 0.00 | 38 | 1009.3 |
| 20260503232619 | 10 | 108 | 4.8 | 4.8 | 0.00 | 0.00 | 0.00 | 36 | 1009.8 |
| 20260503232116 | 9 | 108 | 1.6 | 1.6 | 0.00 | 0.00 | 0.00 | 35 | 1009.3 |
| 20260503231614 | 10 | 108 | 3.2 | 3.2 | 0.00 | 0.00 | 0.00 | 37 | 1009.3 |
| 20260503231111 | 10 | 108 | 3.2 | 3.2 | 0.00 | 0.00 | 0.00 | 35 | 1009.0 |
| 20260503230608 | 10 | 108 | 3.2 | 3.2 | 0.00 | 0.00 | 0.00 | 35 | 1009.0 |
| 20260503230104 | 10 | 108 | 6.4 | 6.4 | 0.00 | 0.00 | 0.00 | 35 | 1009.0 |
| 20260503225602 | 10 | 108 | 4.8 | 4.8 | 0.00 | 0.00 | 0.00 | 36 | 1009.0 |
| 20260503225056 | 10 | 108 | 4.8 | 4.8 | 0.00 | 0.00 | 0.00 | 35 | 1009.3 |
| 20260503224555 | 10 | 108 | 4.8 | 4.8 | 0.00 | 0.00 | 0.00 | 36 | 1009.0 |
| 20260503224052 | 10 | 108 | 4.8 | 4.8 | 0.00 | 0.00 | 0.00 | 38 | 1009.0 |
| 20260503223550 | 10 | 108 | 6.4 | 6.4 | 0.00 | 0.00 | 0.00 | 36 | 1009.3 |
| 20260503223045 | 10 | 108 | 8.0 | 9.7 | 0.00 | 0.00 | 0.00 | 36 | 1009.3 |
| 20260503222543 | 10 | 108 | 8.0 | 8.0 | 0.00 | 0.00 | 0.00 | 37 | 1009.3 |
| 20260503222041 | 10 | 108 | 9.7 | 11.3 | 0.00 | 0.00 | 0.00 | 36 | 1009.0 |
| 20260503221539 | 10 | 108 | 4.8 | 4.8 | 0.00 | 0.00 | 0.00 | 37 | 1009.0 |
| 20260503221036 | 10 | 108 | 9.7 | 9.7 | 0.00 | 0.00 | 0.00 | 36 | 1009.0 |
| 20260503220532 | 10 | 108 | 9.7 | 11.3 | 0.00 | 0.00 | 0.00 | 37 | 1009.3 |
| 20260503220029 | 10 | 102 | 6.4 | 6.4 | 0.00 | 0.00 | 0.00 | 36 | 1009.0 |
| 20260503215526 | 10 | 102 | 9.7 | 11.3 | 0.00 | 0.00 | 0.00 | 37 | 1009.0 |
| 20260503215023 | 10 | 102 | 9.7 | 9.7 | 0.00 | 0.00 | 0.00 | 37 | 1009.0 |
| 20260503214522 | 10 | 102 | 4.8 | 6.4 | 0.00 | 0.00 | 0.00 | 39 | 1009.0 |
| 20260503214018 | 10 | 102 | 9.7 | 9.7 | 0.00 | 0.00 | 0.00 | 37 | 1009.0 |
| 20260503213516 | 10 | 108 | 4.8 | 4.8 | 0.00 | 0.00 | 0.00 | 37 | 1009.0 |
| 20260503213013 | 10 | 108 | 9.7 | 11.3 | 0.00 | 0.00 | 0.00 | 38 | 1009.0 |
| 20260503212510 | 10 | 108 | 8.0 | 8.0 | 0.00 | 0.00 | 0.00 | 38 | 1009.0 |
| 20260503212008 | 9 | 108 | 8.0 | 8.0 | 0.00 | 0.00 | 0.00 | 38 | 1009.0 |
| 20260503211504 | 9 | 108 | 11.3 | 11.3 | 0.00 | 0.00 | 0.00 | 40 | 1009.3 |
| 20260503211000 | 10 | 108 | 6.4 | 6.4 | 0.00 | 0.00 | 0.00 | 38 | 1009.0 |
| 20260503210457 | 9 | 108 | 12.9 | 14.5 | 0.00 | 0.00 | 0.00 | 40 | 1009.0 |
| 20260503205957 | 9 | 108 | 8.0 | 8.0 | 0.00 | 0.00 | 0.00 | 40 | 1009.3 |
| 20260503205454 | 9 | 108 | 6.4 | 6.4 | 0.00 | 0.00 | 0.00 | 40 | 1009.3 |
| 20260503204951 | 9 | 102 | 6.4 | 6.4 | 0.00 | 0.00 | 0.00 | 41 | 1009.3 |
| 20260503204448 | 9 | 108 | 6.4 | 6.4 | 0.00 | 0.00 | 0.00 | 41 | 1009.0 |
| 20260503203945 | 10 | 108 | 3.2 | 3.2 | 0.00 | 0.00 | 0.00 | 42 | 1009.3 |
| 20260503203443 | 9 | 102 | 6.4 | 6.4 | 0.00 | 0.00 | 0.00 | 40 | 1009.8 |
| 20260503202939 | 9 | 120 | 9.7 | 9.7 | 0.00 | 0.00 | 0.00 | 42 | 1009.3 |
| 20260503202437 | 8 | 120 | 6.4 | 6.4 | 0.00 | 0.00 | 0.00 | 43 | 1009.3 |
| 20260503201936 | 9 | 120 | 6.4 | 6.4 | 0.00 | 0.00 | 0.00 | 41 | 1009.3 |
| 20260503201432 | 9 | 120 | 3.2 | 3.2 | 0.00 | 0.00 | 0.00 | 46 | 1009.8 |
| 20260503200930 | 8 | 120 | 4.8 | 4.8 | 0.00 | 0.00 | 0.00 | 43 | 1009.3 |
| 20260503200426 | 8 | 120 | 9.7 | 9.7 | 0.00 | 0.00 | 0.00 | 43 | 1009.8 |
| 20260503195923 | 8 | 126 | 4.8 | 6.4 | 0.00 | 0.00 | 0.00 | 44 | 1009.8 |
| 20260503195420 | 8 | 126 | 14.5 | 17.7 | 0.00 | 0.00 | 0.00 | 43 | 1009.8 |
| 20260503194916 | 8 | 108 | 11.3 | 11.3 | 0.00 | 0.00 | 0.00 | 42 | 1009.8 |
| 20260503194413 | 8 | 108 | 16.1 | 17.7 | 0.00 | 0.00 | 0.00 | 43 | 1009.8 |
| 20260503193909 | 8 | 114 | 3.2 | 3.2 | 0.00 | 0.00 | 0.00 | 45 | 1009.8 |
| 20260503193404 | 8 | 114 | 3.2 | 3.2 | 0.00 | 0.00 | 0.00 | 44 | 1009.8 |
| 20260503192900 | 8 | 114 | 11.3 | 11.3 | 0.00 | 0.00 | 0.00 | 43 | 1010.1 |
| 20260503192356 | 8 | 108 | 8.0 | 9.7 | 0.00 | 0.00 | 0.00 | 42 | 1009.8 |
| 20260503191853 | 8 | 114 | 14.5 | 16.1 | 0.00 | 0.00 | 0.00 | 43 | 1010.1 |
| 20260503191350 | 8 | 114 | 9.7 | 11.3 | 0.00 | 0.00 | 0.00 | 43 | 1010.1 |
| 20260503190846 | 8 | 114 | 6.4 | 6.4 | 0.00 | 0.00 | 0.00 | 42 | 1009.8 |
| 20260503190344 | 8 | 120 | 9.7 | 11.3 | 0.00 | 0.00 | 0.00 | 43 | 1010.1 |
| 20260503185841 | 7 | 120 | 8.0 | 9.7 | 0.00 | 0.00 | 0.00 | 43 | 1010.1 |
| 20260503185337 | 7 | 120 | 12.9 | 14.5 | 0.00 | 0.00 | 0.00 | 42 | 1010.1 |
| 20260503184836 | 7 | 114 | 17.7 | 20.9 | 0.00 | 0.00 | 0.00 | 44 | 1010.1 |
| 20260503184333 | 8 | 114 | 14.5 | 17.7 | 0.00 | 0.00 | 0.00 | 42 | 1010.1 |
| 20260503183829 | 8 | 114 | 6.4 | 6.4 | 0.00 | 0.00 | 0.00 | 44 | 1009.8 |
| 20260503183326 | 8 | 114 | 9.7 | 9.7 | 0.00 | 0.00 | 0.00 | 43 | 1009.8 |
| 20260503182823 | 7 | 114 | 4.8 | 4.8 | 0.00 | 0.00 | 0.00 | 44 | 1010.1 |
| 20260503182323 | 7 | 120 | 17.7 | 19.3 | 0.00 | 0.00 | 0.00 | 42 | 1010.1 |
| 20260503181819 | 7 | 108 | 6.4 | 6.4 | 0.00 | 0.00 | 0.00 | 43 | 1010.1 |
| 20260503181316 | 7 | 108 | 11.3 | 11.3 | 0.00 | 0.00 | 0.00 | 44 | 1010.1 |
| 20260503180813 | 7 | 114 | 11.3 | 11.3 | 0.00 | 0.00 | 0.00 | 44 | 1010.1 |
| 20260503180311 | 7 | 144 | 8.0 | 9.7 | 0.00 | 0.00 | 0.00 | 42 | 1010.1 |
| 20260503175806 | 7 | 168 | 9.7 | 9.7 | 0.00 | 0.00 | 0.00 | 44 | 1010.1 |
| 20260503175306 | 7 | 168 | 8.0 | 9.7 | 0.00 | 0.00 | 0.00 | 43 | 1010.1 |
| 20260503174806 | 7 | 168 | 9.7 | 11.3 | 0.00 | 0.00 | 0.00 | 45 | 1010.1 |
| 20260503174304 | 7 | 180 | 22.5 | 24.1 | 0.00 | 0.00 | 0.00 | 42 | 1010.1 |
| 20260503173759 | 7 | 120 | 9.7 | 9.7 | 0.00 | 0.00 | 0.00 | 43 | 1010.1 |
| 20260503173255 | 7 | 114 | 11.3 | 11.3 | 0.00 | 0.00 | 0.00 | 44 | 1010.1 |
| 20260503172753 | 7 | 120 | 6.4 | 8.0 | 0.00 | 0.00 | 0.00 | 45 | 1010.1 |
| 20260503172250 | 7 | 120 | 6.4 | 8.0 | 0.00 | 0.00 | 0.00 | 46 | 1010.1 |
| 20260503171746 | 7 | 120 | 9.7 | 9.7 | 0.00 | 0.00 | 0.00 | 44 | 1010.1 |
| 20260503171243 | 7 | 156 | 19.3 | 24.1 | 0.00 | 0.00 | 0.00 | 45 | 1010.1 |
| 20260503170740 | 7 | 102 | 8.0 | 8.0 | 0.00 | 0.00 | 0.00 | 46 | 1009.8 |
| 20260503170237 | 7 | 108 | 12.9 | 14.5 | 0.00 | 0.00 | 0.00 | 46 | 1009.8 |
| 20260503160159 | 6 | 96 | 4.8 | 6.4 | 0.00 | 0.00 | 0.00 | 52 | 1010.1 |
| 20260503150629 | 6 | 108 | 9.7 | 9.7 | 0.00 | 0.00 | 0.00 | 51 | 1010.4 |
| 20260503150125 | 7 | 96 | 8.0 | 8.0 | 0.00 | 0.00 | 0.00 | 55 | 1010.1 |